Location: Pine Mountain Observatory
(43.7910°N, 120.9377°W)
Time: 11:22:03
(UTC-07:00)

Explorer 11/Cluster Stage 4 - Pass Details

Date: 02 June 2019
Orbit: 467 x 1260 km, 28.8° (Epoch: 19 June)

Event Time Altitude Azimuth Distance (km) Brightness Sun altitude
Rises 01:30:49 0° 243° (WSW) 4,136 - -23.7°
Reaches altitude 10° 01:34:27 10° 230° (SW) 3,095 - -23.6°
Maximum altitude 01:40:14 23° 182° (S) 2,094 - -23.4°
Drops below altitude 10° 01:45:23 10° 132° (SE) 2,712 - -23.3°
Exits shadow 01:47:45 - 120° (ESE) 3,343 9.6 -23.2°
Sets 01:48:20 0° 118° (ESE) 3,518 9.8 -23.2°
